{"data":{"norad_id":28358,"intl_designator":"2004-022A","name":"INTELSAT 10-02","alt_names":[],"object_type":"PAYLOAD","status":"ACTIVE","operator":null,"country":"ITSO","launch_date":"2004-06-16","launch_site_code":"TYMSC","launch_vehicle":null,"mission":null,"orbit_class":"UNKNOWN","rcs_meters":21.2048,"size_class":null,"mass_kg":null,"dimensions":null,"purposes":["comms"],"wikipedia_slug":null,"has_3d_model":false,"image_url":null,"decayed_at":null,"tle_current":{"epoch":"2026-09-19T15:15:23.684256Z","epoch_age_seconds":89055,"freshness":"FRESH","line1":"1 28358U 04022A   26262.63569079 -.00000015  00000+0  00000+0 0  9992","line2":"2 28358   0.0353 257.6156 0000096 220.8627 107.9179  1.00271743 81506","mean_motion":1.00271743,"eccentricity":9.6e-6,"inclination_deg":0.0353,"raan_deg":257.6156,"arg_perigee_deg":220.8627,"mean_anomaly_deg":107.9179,"bstar":0,"rev_number":8150,"period_min":1436.0975055555,"perigee_km":35786.20195378,"apogee_km":35787.011516859,"semimajor_km":42164.743735319,"source":"CELESTRAK","updated_at":"2026-09-20T09:00:35.515201Z"}}}